EW6005 Weather Reports


Display with metric or nautical units.
time (UTC)temp
F
wind
direction
speed
MPH
gust
MPH
rain 1hr
in
rain 24hr
in
rain mn
in
humidity
%
barometer
mb
20260831151846 86 198 1.0 4.0 0.00 0.00 0.00 85 1002.5
20260831151114 85 84 0.0 3.0 0.00 0.00 0.00 86 1002.5
20260831150613 85 11 1.0 3.0 0.00 0.00 0.00 88 1002.5
20260831150116 84 153 1.0 3.0 0.00 0.00 0.00 89 1002.5
20260831145614 83 0 1.0 3.0 0.00 0.00 0.00 89 1002.5
20260831145333 83 148 1.0 2.0 0.00 0.00 0.00 90 1002.5
20260831144614 83 0 0.0 3.0 0.00 0.00 0.00 91 1002.4
20260831144114 82 0 0.0 3.0 0.00 0.00 0.00 92 1002.4
20260831143837 82 0 0.0 2.0 0.00 0.00 0.00 93 1002.4
20260831143114 82 0 1.0 3.0 0.00 0.00 0.00 93 1002.4
20260831142610 81 0 1.0 3.0 0.00 0.00 0.00 94 1002.4
20260831142110 81 0 0.0 2.0 0.00 0.00 0.00 95 1002.4
20260831141611 80 0 0.0 2.0 0.00 0.00 0.00 95 1002.3
20260831141110 80 0 0.0 2.0 0.00 0.00 0.00 95 1002.3
20260831140611 79 0 0.0 1.0 0.00 0.00 0.00 96 1002.3
20260831140111 79 0 0.0 1.0 0.00 0.00 0.00 96 1002.3
20260831135611 78 0 0.0 1.0 0.00 0.00 0.00 96 1002.2
20260831135111 78 0 0.0 1.0 0.00 0.00 0.00 96 1002.2
20260831134612 78 0 0.0 1.0 0.00 0.00 0.00 96 1002.1
20260831134103 78 0 0.0 0.0 0.00 0.00 0.00 96 1002.0
20260831133557 78 0 0.0 1.0 0.00 0.00 0.00 96 1002.0
20260831133058 77 0 0.0 1.0 0.00 0.00 0.00 96 1002.0
20260831132559 77 0 0.0 1.0 0.00 0.00 0.00 96 1002.0
20260831132100 77 0 0.0 0.0 0.00 0.00 0.00 95 1002.0
20260831131559 76 0 0.0 0.0 0.00 0.00 0.00 95 1002.0
20260831131100 76 0 0.0 1.0 0.00 0.00 0.00 95 1002.0
20260831130600 76 0 0.0 1.0 0.00 0.00 0.00 95 1002.0
20260831130059 76 0 0.0 0.0 0.00 0.00 0.00 95 1002.0
20260831125558 76 0 0.0 0.0 0.00 0.00 0.00 95 1001.9
20260831125058 76 0 0.0 0.0 0.00 0.00 0.00 94 1001.9
20260831124558 76 0 0.0 0.0 0.00 0.00 0.00 94 1001.8
20260831124142 76 0 0.0 0.0 0.00 0.00 0.00 94 1001.7
20260831123327 76 0 0.0 0.0 0.00 0.00 0.00 94 1001.6
20260831122558 76 0 0.0 0.0 0.00 0.00 0.00 94 1001.6
20260831122058 76 0 0.0 0.0 0.00 0.00 0.00 94 1001.5
20260831121820 76 0 0.0 0.0 0.00 0.00 0.00 93 1001.3
20260831121049 76 0 0.0 0.0 0.00 0.00 0.00 93 1001.2
20260831120550 76 0 0.0 0.0 0.00 0.00 0.00 93 1001.2
20260831120049 76 0 0.0 0.0 0.00 0.00 0.00 93 1001.2
20260831115550 76 0 0.0 0.0 0.00 0.00 0.00 93 1001.2
20260831115050 76 0 0.0 0.0 0.00 0.00 0.00 93 1001.1
20260831114547 76 0 0.0 0.0 0.00 0.00 0.00 93 1001.0
20260831114047 76 0 0.0 0.0 0.00 0.00 0.00 93 1000.9
20260831113548 76 0 0.0 0.0 0.00 0.00 0.00 93 1001.0
20260831113048 76 0 0.0 0.0 0.00 0.00 0.00 93 1001.0
20260831112545 76 0 0.0 0.0 0.00 0.00 0.00 93 1001.0
20260831112045 76 0 0.0 0.0 0.00 0.00 0.00 92 1001.0
20260831111544 76 0 0.0 0.0 0.00 0.00 0.00 92 1001.0
20260831111046 76 0 0.0 0.0 0.00 0.00 0.00 92 1001.0
20260831110805 76 0 0.0 0.0 0.00 0.00 0.00 92 1001.0
20260831110043 76 0 0.0 0.0 0.00 0.00 0.00 92 1001.0
20260831105544 76 0 0.0 0.0 0.00 0.00 0.00 92 1001.0
20260831105040 77 0 0.0 0.0 0.00 0.00 0.00 92 1000.9
20260831104537 77 0 0.0 0.0 0.00 0.00 0.00 92 1000.9
20260831104038 77 0 0.0 0.0 0.00 0.00 0.00 92 1000.9
20260831103533 77 0 0.0 0.0 0.00 0.00 0.00 92 1000.9
20260831103510 77 0 0.0 0.0 0.00 0.00 0.00 92 1000.9
20260831102533 77 0 0.0 0.0 0.00 0.00 0.00 92 1001.0
20260831102033 77 0 0.0 0.0 0.00 0.00 0.00 91 1001.0
20260831101531 77 0 0.0 0.0 0.00 0.00 0.00 91 1001.0
20260831101031 77 0 0.0 0.0 0.00 0.00 0.00 91 1001.0
20260831100531 77 0 0.0 0.0 0.00 0.00 0.00 91 1001.1
20260831100030 77 0 0.0 0.0 0.00 0.00 0.00 91 1001.1
20260831095523 77 0 0.0 0.0 0.00 0.00 0.00 91 1001.1
20260831095023 77 0 0.0 0.0 0.00 0.00 0.00 91 1001.0
20260831094520 77 0 0.0 0.0 0.00 0.00 0.00 90 1000.9
20260831094019 78 0 0.0 0.0 0.00 0.00 0.00 90 1000.9
20260831093521 78 0 0.0 0.0 0.00 0.00 0.00 90 1000.9
20260831093506 78 0 0.0 0.0 0.00 0.00 0.00 90 1000.9
20260831092515 78 0 0.0 0.0 0.00 0.00 0.00 90 1000.8
20260831092016 78 0 0.0 0.0 0.00 0.00 0.00 90 1000.8
20260831091515 78 0 0.0 0.0 0.00 0.00 0.00 90 1000.7
20260831091013 78 0 0.0 0.0 0.00 0.00 0.00 90 1000.8
20260831090512 78 0 0.0 0.0 0.00 0.00 0.00 89 1000.9
20260831090230 78 0 0.0 0.0 0.00 0.00 0.00 89 1000.9
20260831085509 78 0 0.0 0.0 0.00 0.00 0.00 90 1000.9
20260831085008 78 0 0.0 0.0 0.00 0.00 0.00 89 1000.9
20260831084508 78 0 0.0 0.0 0.00 0.00 0.00 89 1000.8
20260831084007 78 0 0.0 0.0 0.00 0.00 0.00 89 1000.8
20260831083504 79 0 0.0 0.0 0.00 0.00 0.00 89 1000.8
20260831083004 79 0 0.0 0.0 0.00 0.00 0.00 88 1000.9
20260831082503 79 0 0.0 0.0 0.00 0.00 0.00 88 1001.0
20260831082004 79 0 0.0 0.0 0.00 0.00 0.00 88 1000.9
20260831081500 79 0 0.0 0.0 0.00 0.00 0.00 88 1000.9
20260831081001 79 0 0.0 0.0 0.00 0.00 0.00 88 1000.9
20260831080721 79 0 0.0 0.0 0.00 0.00 0.00 87 1000.9
20260831080221 79 0 0.0 0.0 0.00 0.00 0.00 87 1000.9
20260831075459 80 0 0.0 0.0 0.00 0.00 0.00 87 1000.9
20260831074959 80 0 0.0 0.0 0.00 0.00 0.00 87 1001.0
20260831074456 80 0 0.0 0.0 0.00 0.00 0.00 86 1001.0
20260831074217 80 0 0.0 0.0 0.00 0.00 0.00 86 1001.0
20260831073455 80 0 0.0 0.0 0.00 0.00 0.00 86 1001.0
20260831072955 80 0 0.0 0.0 0.00 0.00 0.00 85 1001.0
20260831072456 80 0 0.0 0.0 0.00 0.00 0.00 85 1001.0
20260831071955 81 0 0.0 0.0 0.00 0.00 0.00 85 1001.0
20260831071455 81 0 0.0 0.0 0.00 0.00 0.00 85 1001.1
20260831070956 81 0 0.0 0.0 0.00 0.00 0.00 84 1001.1
20260831070455 81 0 0.0 0.0 0.00 0.00 0.00 84 1001.1
20260831065955 81 0 0.0 0.0 0.00 0.00 0.00 84 1001.1
20260831065456 81 0 0.0 0.0 0.00 0.00 0.00 84 1001.1
20260831064955 81 0 0.0 0.0 0.00 0.00 0.00 84 1001.1
20260831064456 82 0 0.0 0.0 0.00 0.00 0.00 84 1001.1
20260831063952 82 0 0.0 0.0 0.00 0.00 0.00 84 1001.1
20260831063705 82 0 0.0 1.0 0.00 0.00 0.00 83 1001.2
20260831062947 82 0 0.0 1.0 0.00 0.00 0.00 83 1001.2
20260831062447 82 0 0.0 1.0 0.00 0.00 0.00 83 1001.2
20260831061947 82 0 1.0 2.0 0.00 0.00 0.00 83 1001.2
20260831061448 82 0 1.0 2.0 0.00 0.00 0.00 82 1001.2
20260831060947 82 0 1.0 3.0 0.00 0.00 0.00 82 1001.2
20260831060717 82 0 1.0 3.0 0.00 0.00 0.00 82 1001.2
20260831060209 82 0 0.0 3.0 0.00 0.00 0.00 81 1001.2
20260831055448 83 0 0.0 3.0 0.00 0.00 0.00 81 1001.2
20260831054943 83 0 0.0 1.0 0.00 0.00 0.00 81 1001.2
20260831054443 83 0 0.0 1.0 0.00 0.00 0.00 80 1001.2
20260831053944 83 0 0.0 2.0 0.00 0.00 0.00 80 1001.1
20260831053444 83 0 0.0 2.0 0.00 0.00 0.00 80 1001.1
20260831053207 83 0 0.0 1.0 0.00 0.00 0.00 80 1001.0
20260831052708 83 0 0.0 1.0 0.00 0.00 0.00 79 1001.1
20260831051943 83 0 0.0 1.0 0.00 0.00 0.00 79 1001.1
20260831051700 84 0 0.0 3.0 0.00 0.00 0.00 79 1001.1
20260831050943 84 0 0.0 3.0 0.00 0.00 0.00 78 1001.0
20260831050443 84 0 0.0 2.0 0.00 0.00 0.00 78 1001.0
20260831045944 84 0 1.0 3.0 0.00 0.00 0.00 78 1001.0
20260831045439 84 0 1.0 3.0 0.00 0.00 0.00 77 1001.0
20260831044940 84 0 1.0 3.0 0.00 0.00 0.00 77 1001.1
20260831044440 84 0 1.0 3.0 0.00 0.00 0.00 77 1001.0
20260831043939 84 0 1.0 2.0 0.00 0.00 0.00 76 1001.0
20260831043659 84 0 0.0 1.0 0.00 0.00 0.00 76 1000.9
20260831043201 85 0 0.0 1.0 0.00 0.00 0.00 75 1000.8
20260831042440 85 0 0.0 1.0 0.00 0.00 0.00 75 1000.8
20260831041940 85 0 0.0 2.0 0.00 0.00 0.00 75 1000.8
20260831041439 85 0 0.0 3.0 0.00 0.00 0.00 74 1000.7
20260831040940 85 0 1.0 3.0 0.00 0.00 0.00 74 1000.7
20260831040437 85 0 1.0 3.0 0.00 0.00 0.00 74 1000.7
20260831040157 85 0 1.0 4.0 0.00 0.00 0.00 73 1000.6
20260831035437 85 0 1.0 4.0 0.00 0.00 0.00 73 1000.5
20260831034937 85 0 1.0 3.0 0.00 0.00 0.00 72 1000.4
20260831034436 86 0 1.0 3.0 0.00 0.00 0.00 72 1000.4
20260831033937 86 0 0.0 3.0 0.00 0.00 0.00 71 1000.4
20260831033427 86 0 0.0 1.0 0.00 0.00 0.00 70 1000.3
20260831032927 86 0 1.0 3.0 0.00 0.00 0.00 70 1000.3
20260831032425 86 0 1.0 3.0 0.00 0.00 0.00 69 1000.2
20260831031926 87 0 1.0 2.0 0.00 0.00 0.00 69 1000.2
20260831031423 87 0 1.0 2.0 0.00 0.00 0.00 68 1000.1
20260831030922 87 0 1.0 2.0 0.00 0.00 0.00 67 1000.1
20260831030422 87 0 2.0 3.0 0.00 0.00 0.00 67 1000.1
20260831030412 87 0 1.0 3.0 0.00 0.00 0.00 66 1000.0
20260831025647 88 0 1.0 2.0 0.00 0.00 0.00 66 999.9
20260831025141 88 0 1.0 2.0 0.00 0.00 0.00 66 999.8
20260831024417 88 0 1.0 3.0 0.00 0.00 0.00 64 999.7
20260831024141 88 0 1.0 3.0 0.00 0.00 0.00 64 999.6
20260831023411 89 0 1.0 2.0 0.00 0.00 0.00 63 999.5
20260831022910 89 0 1.0 3.0 0.00 0.00 0.00 62 999.4
20260831022408 89 0 1.0 3.0 0.00 0.00 0.00 62 999.4
20260831021907 89 0 1.0 3.0 0.00 0.00 0.00 61 999.3
20260831021623 89 0 1.0 3.0 0.00 0.00 0.00 60 999.3
20260831020904 90 0 1.0 3.0 0.00 0.00 0.00 60 999.3
20260831020403 90 0 1.0 3.0 0.00 0.00 0.00 59 999.2
20260831020120 90 0 1.0 2.0 0.00 0.00 0.00 58 999.2
20260831015402 90 0 1.0 3.0 0.00 0.00 0.00 58 999.2
20260831014903 91 0 1.0 3.0 0.00 0.00 0.00 57 999.1
20260831014403 91 0 1.0 5.0 0.00 0.00 0.00 57 999.1
20260831013903 91 0 2.0 5.0 0.00 0.00 0.00 57 999.0
20260831013403 91 0 1.0 5.0 0.00 0.00 0.00 56 999.1
20260831012903 91 0 1.0 3.0 0.00 0.00 0.00 56 999.0
20260831012401 91 0 1.0 3.0 0.00 0.00 0.00 56 999.0
20260831011902 92 0 1.0 3.0 0.00 0.00 0.00 56 999.0
20260831011403 92 0 1.0 2.0 0.00 0.00 0.00 56 998.9
20260831010859 92 0 1.0 4.0 0.00 0.00 0.00 55 998.8
20260831010358 92 0 2.0 8.0 0.00 0.00 0.00 56 998.8
20260831005855 92 0 2.0 8.0 0.00 0.00 0.00 56 998.8
20260831005355 92 0 1.0 4.0 0.00 0.00 0.00 56 998.7
20260831004853 93 0 1.0 3.0 0.00 0.00 0.00 56 998.7
20260831004353 93 0 1.0 3.0 0.00 0.00 0.00 56 998.6
20260831003853 93 0 1.0 4.0 0.00 0.00 0.00 56 998.6
20260831003355 94 0 1.0 4.0 0.00 0.00 0.00 56 998.6
20260831002854 94 0 1.0 3.0 0.00 0.00 0.00 55 998.7
20260831002353 94 0 0.0 3.0 0.00 0.00 0.00 55 998.6
20260831001853 94 219 1.0 5.0 0.00 0.00 0.00 55 998.6
20260831001353 95 151 2.0 5.0 0.00 0.00 0.00 55 998.6
20260831000853 95 231 2.0 7.0 0.00 0.00 0.00 54 998.6
20260831000355 95 165 1.0 7.0 0.00 0.00 0.00 54 998.5
20260830235854 96 227 1.0 4.0 0.00 0.00 0.00 54 998.5
20260830235354 96 172 2.0 5.0 0.00 0.00 0.00 53 998.4
20260830234853 96 167 2.0 5.0 0.00 0.00 0.00 52 998.5
20260830234351 96 0 1.0 5.0 0.00 0.00 0.00 50 998.4
20260830233849 96 196 1.0 4.0 0.00 0.00 0.00 50 998.5
20260830233349 96 123 1.0 4.0 0.00 0.00 0.00 50 998.4
20260830232845 96 80 1.0 2.0 0.00 0.00 0.00 50 998.4
20260830232346 96 0 1.0 5.0 0.00 0.00 0.00 51 998.5
20260830231845 96 0 1.0 5.0 0.00 0.00 0.00 50 998.4
20260830231606 96 173 1.0 4.0 0.00 0.00 0.00 50 998.4
20260830230845 97 202 1.0 3.0 0.00 0.00 0.00 50 998.5
20260830230345 97 73 1.0 5.0 0.00 0.00 0.00 50 998.5
20260830225845 97 0 2.0 6.0 0.00 0.00 0.00 50 998.5
20260830225346 97 0 2.0 6.0 0.00 0.00 0.00 50 998.6
20260830224846 97 0 2.0 6.0 0.00 0.00 0.00 50 998.5
20260830224345 97 130 2.0 6.0 0.00 0.00 0.00 50 998.7
20260830223845 97 80 2.0 6.0 0.00 0.00 0.00 51 998.6
20260830223825 97 184 2.0 6.0 0.00 0.00 0.00 50 998.7
20260830222845 97 0 1.0 5.0 0.00 0.00 0.00 50 998.6
20260830222345 97 132 1.0 4.0 0.00 0.00 0.00 52 998.6
20260830221845 97 0 1.0 6.0 0.00 0.00 0.00 52 998.6
20260830221345 96 190 1.0 6.0 0.00 0.00 0.00 51 998.7
20260830221103 97 215 2.0 6.0 0.00 0.00 0.00 52 998.8
20260830220342 96 0 2.0 4.0 0.00 0.00 0.00 51 998.7
20260830215836 96 182 2.0 5.0 0.00 0.00 0.00 52 998.7
20260830215609 96 148 2.0 6.0 0.00 0.00 0.00 52 998.8
20260830214837 96 0 3.0 8.0 0.00 0.00 0.00 52 998.9
20260830214337 96 177 2.0 8.0 0.00 0.00 0.00 53 998.9
20260830214053 96 223 1.0 4.0 0.00 0.00 0.00 53 998.9
20260830213559 96 170 1.0 6.0 0.00 0.00 0.00 53 999.0
20260830212837 96 0 3.0 7.0 0.00 0.00 0.00 53 999.1
20260830212334 96 210 2.0 8.0 0.00 0.00 0.00 52 999.2
20260830211834 96 0 2.0 9.0 0.00 0.00 0.00 52 999.3
20260830211555 96 130 3.0 9.0 0.00 0.00 0.00 53 999.3
20260830210833 96 113 2.0 8.0 0.00 0.00 0.00 54 999.3
20260830210333 96 111 3.0 6.0 0.00 0.00 0.00 53 999.4
20260830205832 96 175 3.0 6.0 0.00 0.00 0.00 53 999.4
20260830205333 96 188 2.0 6.0 0.00 0.00 0.00 53 999.5
20260830204833 96 0 2.0 7.0 0.00 0.00 0.00 53 999.6
20260830204334 96 105 2.0 8.0 0.00 0.00 0.00 53 999.7
20260830203834 96 0 1.0 8.0 0.00 0.00 0.00 53 999.7
20260830203335 96 157 1.0 7.0 0.00 0.00 0.00 53 999.7
20260830202834 96 0 2.0 7.0 0.00 0.00 0.00 52 999.8
20260830202556 97 131 2.0 9.0 0.00 0.00 0.00 51 1000.0
20260830202056 97 186 2.0 9.0 0.00 0.00 0.00 53 1000.0
20260830201552 96 0 1.0 4.0 0.00 0.00 0.00 55 999.9
20260830200832 96 0 1.0 5.0 0.00 0.00 0.00 55 1000.0
20260830200333 96 0 2.0 5.0 0.00 0.00 0.00 55 1000.1
20260830200308 96 0 2.0 8.0 0.00 0.00 0.00 54 1000.3
20260830195335 97 163 3.0 10.0 0.00 0.00 0.00 54 1000.4
20260830194829 97 0 3.0 10.0 0.00 0.00 0.00 53 1000.6
20260830194328 97 122 2.0 8.0 0.00 0.00 0.00 53 1000.6
20260830194053 97 0 1.0 6.0 0.00 0.00 0.00 54 1000.7
20260830193330 97 199 1.0 5.0 0.00 0.00 0.00 54 1000.7
20260830193050 97 119 2.0 7.0 0.00 0.00 0.00 54 1000.9
20260830192330 97 217 2.0 7.0 0.00 0.00 0.00 53 1001.0
20260830191829 97 158 2.0 7.0 0.00 0.00 0.00 54 1001.0
20260830191328 97 0 2.0 4.0 0.00 0.00 0.00 54 1001.0
20260830190829 97 0 2.0 4.0 0.00 0.00 0.00 54 1001.2
20260830190325 96 0 2.0 6.0 0.00 0.00 0.00 54 1001.2
20260830185824 96 82 2.0 10.0 0.00 0.00 0.00 57 1001.2
20260830185548 96 0 2.0 10.0 0.00 0.00 0.00 56 1001.3
20260830184825 96 0 2.0 7.0 0.00 0.00 0.00 59 1001.3
20260830184325 96 0 3.0 7.0 0.00 0.00 0.00 57 1001.4
20260830183825 96 190 2.0 8.0 0.00 0.00 0.00 58 1001.5
20260830183325 96 0 3.0 9.0 0.00 0.00 0.00 56 1001.6
20260830183044 96 0 1.0 9.0 0.00 0.00 0.00 59 1001.7
20260830182321 96 0 1.0 4.0 0.00 0.00 0.00 60 1001.8
20260830182037 96 0 1.0 3.0 0.00 0.00 0.00 60 1001.9
20260830181541 96 0 1.0 3.0 0.00 0.00 0.00 59 1001.9
20260830180821 96 0 1.0 3.0 0.00 0.00 0.00 61 1002.0
20260830180320 96 119 1.0 4.0 0.00 0.00 0.00 63 1002.1
20260830175819 96 0 2.0 7.0 0.00 0.00 0.00 63 1002.2
20260830175318 95 0 2.0 7.0 0.00 0.00 0.00 63 1002.3
20260830174817 95 75 2.0 6.0 0.00 0.00 0.00 64 1002.3
20260830174317 94 138 2.0 8.0 0.00 0.00 0.00 65 1002.4
20260830173816 94 170 2.0 8.0 0.00 0.00 0.00 66 1002.5
20260830173317 94 0 2.0 10.0 0.00 0.00 0.00 65 1002.6
20260830173034 94 300 2.0 10.0 0.00 0.00 0.00 67 1002.6
20260830172317 93 0 1.0 8.0 0.00 0.00 0.00 67 1002.8
20260830171814 93 208 1.0 4.0 0.00 0.00 0.00 67 1002.8
20260830171310 92 138 1.0 6.0 0.00 0.00 0.00 70 1002.7
20260830170808 92 0 3.0 8.0 0.00 0.00 0.00 70 1002.7
20260830170524 91 140 3.0 8.0 0.00 0.00 0.00 68 1002.7
20260830165806 91 0 2.0 5.0 0.00 0.00 0.00 70 1002.9
20260830165306 90 181 1.0 5.0 0.00 0.00 0.00 72 1002.9
20260830164804 90 0 1.0 5.0 0.00 0.00 0.00 74 1002.9
20260830164302 89 0 1.0 4.0 0.00 0.00 0.00 75 1003.0
20260830163802 89 0 2.0 4.0 0.00 0.00 0.00 73 1003.0
20260830163256 89 0 2.0 4.0 0.00 0.00 0.00 74 1003.0
20260830162759 89 139 2.0 6.0 0.00 0.00 0.00 76 1003.0
20260830162254 89 0 2.0 8.0 0.00 0.00 0.00 75 1003.0
20260830161753 88 0 2.0 8.0 0.00 0.00 0.00 78 1003.0
20260830161250 87 0 2.0 8.0 0.00 0.00 0.00 79 1003.1
20260830160749 87 0 1.0 6.0 0.00 0.00 0.00 80 1003.1
20260830160250 86 0 0.0 2.0 0.00 0.00 0.00 81 1003.1
20260830155748 86 0 0.0 2.0 0.00 0.00 0.00 81 1003.1
20260830155249 86 0 1.0 2.0 0.00 0.00 0.00 83 1003.2
20260830154744 86 0 1.0 4.0 0.00 0.00 0.00 83 1003.1
20260830154457 85 0 1.0 4.0 0.00 0.00 0.00 83 1003.1
20260830153738 85 0 1.0 4.0 0.00 0.00 0.00 84 1003.1
20260830153240 85 0 1.0 4.0 0.00 0.00 0.00 85 1003.1
20260830152955 85 0 1.0 4.0 0.00 0.00 0.00 85 1003.0
20260830152239 85 190 1.0 5.0 0.00 0.00 0.00 86 1003.0